Location: ????????
(55.6189°N, 38.3031°E)
Time: 21:51:08
(UTC+00:00)

Cosmos 2219 Rocket - Pass Details

Date: 15 November 2019
Orbit: 827 x 847 km, 71.0° (Epoch: 07 December)

Event Time Altitude Azimuth Distance (km) Brightness Sun altitude
Exits shadow 01:05:31 18° 359° (N) 1,972 4.2 -32.7°
Maximum altitude 01:06:39 19° 14° (NNE) 1,921 4.3 -32.5°
Drops below altitude 10° 01:10:34 10° 58° (ENE) 2,469 5.4 -32.0°
Sets 01:13:49 0° 77° (ENE) 3,406 6.5 -31.5°
